Antonio Fonseca

Olheiro-Chefe - Vizela
3 Abr 2027
Sábado
Processo

Personalidade

Adaptabilidade (4) Ambição (10) Controvérsia (18) Lealdade (2) Pressão (4) Profissionalismo (17) Espírito Esportivo (10) Temperamento (9)

Perfil

Estilo de Treinamento Democrático
Licença Continental A
Determinação 8
Gestão de Pessoas 7
Motivação 8
Disciplina 5
Satisfação no Trabalho
90%
Fadiga
0%
Função Olheiro-Chefe
Salário 53.9K p/s
Contrato 14.03.2029

Desempenho

Comportamento Bom
Eficácia do Treinamento
27%
Desenvolvimento do Jogador
55%
Prevenção de Lesões
40%
Implementação Tática
25%

Eventos Recentes

Avaliou um jogador agora
Participou de uma reunião de recrutamento agora
Recomendou um alvo de transferência agora
Avaliou um jogador agora
Avaliou um jogador 7d atrás
Avaliou um jogador 7d atrás
Avaliou um jogador 7d atrás
Avaliou um jogador 7d atrás

Monitorando agora

99
Jogador Clube Status Habilidade Confiança Observado Última observação Último voto
Thauan Lara Portimonense Ativo 107 / 106 40% 5 02.04.2027 -
Fraser Murray Wigan Athletic Ativo 123 / 109 40% 5 02.04.2027 -
Jay Matete Milton Keynes Dons Ativo 100 / 105 40% 7 01.04.2027 -
Daniel Rivas AVS Ativo 112 / 107 40% 2 01.04.2027 -
Kyreece Lisbie Colchester United Ativo 111 / 115 40% 2 31.03.2027 -
Udoka Godwin-Malife Burton Albion Ativo 111 / 94 40% 1 29.03.2027 -
Goodman Mosele Chippa United Ativo 123 / 94 40% 1 29.03.2027 -
Ibrahim Cissoko Zwolle Ativo 107 / 123 40% 3 28.03.2027 -
Fedde de Jong De Graafschap Ativo 121 / 110 40% 1 28.03.2027 -
Dean Campbell Northampton Town Ativo 100 / 101 40% 1 26.03.2027 -
Ronaldo Maarman University of Pretoria Ativo 118 / 115 40% 3 25.03.2027 -
Kamil Conteh Bristol Rovers Ativo 111 / 104 40% 2 25.03.2027 -
David Ankeye Zeleznicar Pancevo Ativo 115 / 121 40% 3 22.03.2027 -
Adam Kaied Zamalek Ativo 125 / 119 40% 3 22.03.2027 -
Solomon John Mlada Boleslav Ativo 109 / 127 40% 5 19.03.2027 -
Charlie Webster Burton Albion Ativo 114 / 119 40% 4 16.03.2027 -
Jonathan Sulemana BA All Stars Ativo 87 / 101 40% 2 14.03.2027 -
Eduardo Fernandes Benfica Ativo 113 / 117 40% 4 14.03.2027 -
Ilja Berkovskiy Torpedo Moscow Ativo 92 / 112 40% 2 13.03.2027 -
Tomáš Zlatohlávek Teplice Ativo 105 / 109 40% 1 13.03.2027 -
Afonso Peixoto Felgueiras Ativo 107 / 115 40% 3 11.03.2027 -
Prestige Mboungou TSC Ativo 131 / 98 40% 2 11.03.2027 -
Matías González Volos NPS Ativo 112 / 110 40% 2 10.03.2027 -
Diego Valencia Gornik Leczna Ativo 116 / 103 40% 3 08.03.2027 -
Denys Shostak Obolon Ativo 120 / 110 40% 1 05.03.2027 -
Pedro Pinho Pacos de Ferreira Ativo 98 / 113 40% 1 03.03.2027 -
Johnly Yfeko Exeter City Rejeitado 102 / 118 40% 2 02.03.2027 Mais informações
Kyle John Port Vale Ativo 93 / 104 40% 3 02.03.2027 -
Mésaque Djú Portimonense Ativo 107 / 93 40% 4 01.03.2027 -
Luca Connell Barnsley Ativo 122 / 110 40% 3 28.02.2027 -
Kirill Danilin Fakel Ativo 120 / 97 40% 1 28.02.2027 -
Danyil Alefirenko Chornomorets Ativo 109 / 114 40% 2 26.02.2027 -
Đorđe Pantelić Spartak Kostroma Ativo 108 / 109 40% 1 25.02.2027 -
Stefan Tomović Spartak Subotica Ativo 90 / 104 40% 2 24.02.2027 -
Njegoš Petrović Vojvodina Ativo 125 / 114 40% 2 24.02.2027 -
Jerónimo Porto Lapegüe Slask Ativo 128 / 102 40% 2 21.02.2027 -
Petr Juliš Slovan Liberec Ativo 90 / 101 40% 1 20.02.2027 -
Connor Barrett Walsall Ativo 95 / 110 40% 2 17.02.2027 -
Lazar Mijović Cukaricki Ativo 95 / 95 40% 3 14.02.2027 -
Michal Černák Dukla Prague Ativo 115 / 107 40% 1 13.02.2027 -
Wiktor Długosz Korona Ativo 101 / 100 40% 1 13.02.2027 -
Sebastian Nebyla Jablonec Ativo 115 / 107 40% 1 08.02.2027 -
Luke Baartman Chippa United Ativo 86 / 107 40% 1 07.02.2027 -
Sinoxolo Kwayiba Chippa United Ativo 114 / 96 40% 4 05.02.2027 -
Yehor Tverdokhlib LNZ Ativo 125 / 124 40% 1 05.02.2027 -
Bar Lin Kryvbas Ativo 121 / 115 40% 1 02.02.2027 -
Ibrahim Tarek Masr El Makasa Ativo 139 / 132 40% 4 31.01.2027 -
Daniel Kyerewaa Reading Ativo 114 / 110 40% 1 30.01.2027 -
Ali Soliman Masr El Makasa Ativo 125 / 127 40% 2 26.01.2027 -
David Buchta Radnicki 1923 Ativo 115 / 103 40% 2 23.01.2027 -
Lindon Emërllahu Polissia Ativo 132 / 132 40% 1 23.01.2027 -
Miguel Falé Pacos de Ferreira Ativo 91 / 100 40% 1 22.01.2027 -
Vitalii Dakhnovskyi Bukovyna Ativo 108 / 101 40% 4 21.01.2027 -
Soltmurad Bakaev Rodina Rejeitado 122 / 120 40% 2 20.01.2027 Mais informações
Erick Ngcobo Black Aces Ativo 87 / 100 40% 3 09.01.2027 -
Uroš Miladinović Cukaricki Ativo 127 / 98 40% 2 09.01.2027 -
Luis Suazo Braga Relatório pronto 83 / 92 72% 1 01.01.2027 Aprovar
Patricio Moyano Cobresal Rejeitado 113 / 116 64% 1 01.01.2027 Rejeitar
Mathis Jangeal Famalicao Rejeitado 93 / 103 68% 1 01.01.2027 Rejeitar
Brian Figueroa Morelia Ativo 95 / 106 40% 4 28.12.2026 -
Andile Zungu Platinum Stars Ativo 123 / 101 40% 1 27.12.2026 -
Bradley Mothiba SuperSport United Ativo 82 / 95 40% 2 26.12.2026 -
Benjamin Kanurić Admira Wacker Ativo 105 / 101 40% 2 26.12.2026 -
Carlos Paraco Metalist Ativo 106 / 99 40% 1 25.12.2026 -
Martin Gjorgievski Zbrojovka Brno Ativo 93 / 129 40% 1 24.12.2026 -
George Hall Port Vale Ativo 110 / 109 40% 1 22.12.2026 -
Fernando Bragantino Ativo 144 / 119 40% 1 16.12.2026 -
Hussayn Touati Oleksandriya Ativo 85 / 100 40% 1 13.12.2026 -
Lucho Vega Adana Demirspor Ativo 82 / 90 40% 2 12.12.2026 -
Dylan Borrero America de Cali Ativo 105 / 118 40% 1 12.12.2026 -
Lebogang Erasmus Platinum Stars Ativo 87 / 119 40% 2 11.12.2026 -
Wallace Yan Flamengo Ativo 100 / 138 40% 3 09.12.2026 -
Thulani Mabaso Platinum Stars Ativo 81 / 118 40% 1 09.12.2026 -
Akinkunmi Amoo Ismaily Ativo 107 / 122 40% 1 06.12.2026 -
Thorgan Nainggolan Mouscron Ativo 92 / 109 40% 1 06.12.2026 -
Alin Fică CFR Cluj Ativo 109 / 128 40% 2 04.12.2026 -
Carlos Gutiérrez Montana Ativo 115 / 88 40% 1 28.11.2026 -
Matías Pellegrini Vélez Ativo 101 / 134 40% 1 27.11.2026 -
Leandro Dias Pacos de Ferreira Ativo 115 / 100 40% 1 27.11.2026 -
Mateo Garavito Deportivo Pasto Ativo 101 / 121 40% 1 24.11.2026 -
Pablo García Gijón Ativo 95 / 103 40% 1 22.11.2026 -
Alejandro Piedrahita Deportivo Pereira Ativo 118 / 115 40% 1 22.11.2026 -
Iván Tona Tijuana Ativo 109 / 127 40% 1 20.11.2026 -
Juan Esteban Ávalo Aguilas Doradas Ativo 124 / 119 40% 1 19.11.2026 -
Artem Slesar Zorya Ativo 132 / 108 40% 2 17.11.2026 -
Ihor Krasnopir Polissia Ativo 110 / 125 40% 1 17.11.2026 -
Alejandro Organista Puebla Ativo 113 / 123 40% 1 15.11.2026 -
Enzo González Defensores Ativo 117 / 91 40% 1 14.11.2026 -
Geindry Cuervo Envigado Ativo 120 / 111 40% 1 12.11.2026 -
Tobías Leiva Estudiantes Ativo 103 / 117 40% 1 12.11.2026 -
Jonathan Arteaga Veracruz Ativo 100 / 111 40% 1 11.11.2026 -
David Pech Mlada Boleslav Ativo 94 / 125 40% 1 10.11.2026 -
Miguel Terceros Santos Ativo 103 / 135 40% 1 07.11.2026 -
Tobías Bovone Deportivo Pereira Ativo 130 / 115 40% 1 06.11.2026 -
Bayron Duarte Queretaro Ativo 105 / 106 40% 1 06.11.2026 -
Siyanda Msani University of Pretoria Ativo 83 / 89 40% 1 04.11.2026 -
Franco Fagúndez Estudiantes Ativo 116 / 118 40% 1 04.11.2026 -
Sergio Rondon Atletico Venezuela Ativo 108 / 116 40% 1 03.08.2026 -
Felipe Serrés Wanderers Ativo 108 / 89 40% 1 03.08.2026 -